Weather History for Marion, OH

Change the Weather History Date:

Saturday, February 23, 2013

  Actual Average (KDLZ) Record (KDLZ)
Temperature  
Mean Temperature 32 °F -  
Max Temperature 35 °F 45 °F 67 °F (1983)
Min Temperature 28 °F 24 °F -5 °F (1978)
Degree Days  
Heating Degree Days 34    
Moisture  
Dew Point 25 °F    
Average Humidity 75    
Maximum Humidity 89    
Minimum Humidity 64    
Precipitation  
Precipitation 0.00 in - - ()
Sea Level Pressure  
Sea Level Pressure 29.94 in    
Wind  
Wind Speed 8 mph (West)    
Max Wind Speed 12 mph    
Max Gust Speed 17 mph    
Visibility 10 miles    
Events      
Averages and records for this station are not official NWS values.
T = Trace of Precipitation, MM = Missing Value Source: NWS Daily Summary

Daily Weather History Graph

Daily Weather History Graph

Search for Another Location

Airport:

Trip Planner

Search our weather history database for the weather conditions in past years. The results will help you decide how hot, cold, wet, or windy it might be!

Date:

Astronomy

Feb. 23, 2013 Rise Set
Actual Time 7:14 AM EST 6:17 PM EST
Civil Twilight 6:47 AM EST 6:44 PM EST
Nautical Twilight 6:15 AM EST 7:16 PM EST
Astronomical Twilight 5:43 AM EST 7:48 PM EST
Moon 4:26 PM EST (2/23) 5:36 AM EST (2/23)
Length of Visible Light 11h 57m
Length of Day
11h 02m
Waxing Gibbous, 95% of the Moon is Illuminated
Feb 23
Waxing Gibbous
Feb 25
Full
Mar 4
Last Quarter
Mar 11
New
Mar 19
First Quarter

Hourly Weather History & Observations

Time (EST) Temp. Windchill Dew Point Humidity Pressure Visibility Wind Dir Wind Speed Gust Speed Precip Events Conditions
12:53 AM 33.1 °F 26.1 °F 30.0 °F 89% 29.98 in 10.0 mi South 8.1 mph - N/A   Overcast
1:53 AM 33.1 °F 26.1 °F 30.0 °F 89% 29.98 in 10.0 mi SSW 8.1 mph - N/A   Overcast
2:53 AM 34.0 °F 28.8 °F 28.9 °F 82% 29.96 in 10.0 mi SSW 5.8 mph - N/A   Overcast
3:53 AM 33.1 °F 25.5 °F 28.9 °F 85% 29.95 in 10.0 mi SSW 9.2 mph - N/A   Overcast
4:53 AM 33.1 °F 27.7 °F 28.9 °F 85% 29.96 in 10.0 mi WSW 5.8 mph - N/A   Overcast
5:01 AM 33.8 °F 27.0 °F 28.4 °F 81% 29.93 in 10.0 mi West 8.1 mph - N/A   Overcast
5:25 AM 33.8 °F 28.6 °F 28.4 °F 81% 29.93 in 8.0 mi WSW 5.8 mph - N/A   Overcast
5:53 AM 33.1 °F 25.5 °F 28.0 °F 82% 29.97 in 9.0 mi WSW 9.2 mph - N/A   Overcast
6:53 AM 32.0 °F 26.4 °F 28.0 °F 85% 29.96 in 8.0 mi West 5.8 mph - N/A   Overcast
7:53 AM 32.0 °F 24.8 °F 27.0 °F 82% 29.98 in 7.0 mi West 8.1 mph - N/A   Overcast
8:53 AM 30.9 °F 22.2 °F 25.0 °F 79% 29.99 in 8.0 mi West 10.4 mph - N/A   Overcast
9:53 AM 30.9 °F 21.7 °F 24.1 °F 76% 29.98 in 8.0 mi WNW 11.5 mph - N/A   Overcast
10:53 AM 32.0 °F 23.0 °F 21.9 °F 66% 29.98 in 10.0 mi WSW 11.5 mph - N/A   Mostly Cloudy
11:36 AM 30.2 °F 21.9 °F 21.2 °F 69% 29.93 in 10.0 mi West 9.2 mph - N/A   Scattered Clouds
11:53 AM 33.1 °F 27.7 °F 23.0 °F 66% 29.97 in 10.0 mi WNW 5.8 mph - N/A   Scattered Clouds
12:01 PM 33.8 °F 25.3 °F 23.0 °F 65% 29.94 in 10.0 mi WSW 11.5 mph 17.3 mph N/A   Mostly Cloudy
12:53 PM 33.1 °F 27.7 °F 23.0 °F 66% 29.97 in 10.0 mi West 5.8 mph - N/A   Mostly Cloudy
1:53 PM 35.1 °F 26.9 °F 24.1 °F 64% 29.95 in 10.0 mi West 11.5 mph - N/A   Mostly Cloudy
2:18 PM 33.8 °F 26.4 °F 23.0 °F 65% 29.93 in 10.0 mi West 9.2 mph - N/A   Scattered Clouds
2:53 PM 33.1 °F 26.9 °F 23.0 °F 66% 29.93 in 10.0 mi WSW 6.9 mph - N/A   Mostly Cloudy
3:00 PM 33.8 °F 30.8 °F 23.0 °F 65% 29.89 in 10.0 mi Variable 3.5 mph - N/A   Scattered Clouds
3:07 PM 33.8 °F 26.4 °F 23.0 °F 65% 29.89 in 10.0 mi WNW 9.2 mph - N/A   Mostly Cloudy
3:14 PM 33.8 °F 27.7 °F 23.0 °F 65% 29.89 in 10.0 mi West 6.9 mph - N/A   Scattered Clouds
3:22 PM 33.8 °F 29.6 °F 24.8 °F 70% 29.89 in 10.0 mi WNW 4.6 mph - N/A   Mostly Cloudy
3:53 PM 33.1 °F 26.1 °F 23.0 °F 66% 29.93 in 10.0 mi WNW 8.1 mph - N/A   Mostly Cloudy
4:53 PM 33.1 °F 26.1 °F 21.9 °F 64% 29.94 in 10.0 mi WSW 8.1 mph - N/A   Mostly Cloudy
5:31 PM 33.8 °F 30.8 °F 24.8 °F 70% 29.90 in 10.0 mi WNW 3.5 mph - N/A   Overcast
5:53 PM 33.1 °F 28.7 °F 24.1 °F 70% 29.94 in 10.0 mi NW 4.6 mph - N/A   Overcast
6:53 PM 33.1 °F - 24.1 °F 70% 29.94 in 10.0 mi Calm Calm - N/A   Overcast
7:53 PM 32.0 °F - 24.1 °F 73% 29.94 in 10.0 mi Calm Calm - N/A   Overcast
8:53 PM 30.9 °F 22.8 °F 24.1 °F 76% 29.95 in 10.0 mi NNW 9.2 mph - N/A   Overcast
9:53 PM 28.9 °F 21.1 °F 24.1 °F 82% 29.96 in 9.0 mi NW 8.1 mph - N/A   Overcast
10:05 PM 28.4 °F 21.2 °F 23.0 °F 80% 29.91 in 10.0 mi NW 6.9 mph - N/A   Mostly Cloudy
10:15 PM 28.4 °F 21.2 °F 23.0 °F 80% 29.91 in 10.0 mi NW 6.9 mph - N/A   Partly Cloudy
10:53 PM 28.0 °F 21.7 °F 21.9 °F 78% 29.94 in 10.0 mi WNW 5.8 mph - N/A   Clear
11:44 PM 28.4 °F 21.2 °F 23.0 °F 80% 29.91 in 9.0 mi NNW 6.9 mph - N/A   Mostly Cloudy
11:53 PM 28.0 °F 20.0 °F 23.0 °F 81% 29.95 in 9.0 mi NNW 8.1 mph - N/A   Overcast